Theta_e
298 298 298 299 299 299 300 300 300 301 301 301 302 302 303 305 308 307 310 317 315 318 318 322 317 324 331 331 330 331 327 324 325 327 328 330 329 331 331 331 332 332 332 331 332
298 298 298 298 298 298 298 298 299 299 300 301 301 301 302 302 305 308 315 313 314 315 319 318 323 329 331 331 332 332 327 326 325 326 328 329 330 331 331 332 332 332 332 331 331
298 298 298 298 298 298 298 299 298 298 298 299 300 301 301 301 304 310 313 314 315 314 317 317 318 322 326 327 331 330 329 326 326 327 328 329 331 332 332 331 332 332 331 332 332
300 299 299 299 299 299 299 299 299 299 299 299 299 299 300 300 311 315 314 313 315 314 316 316 315 317 319 325 327 328 329 328 327 328 328 329 331 332 331 331 332 332 332 332 332
301 301 301 301 301 300 300 300 300 300 300 299 299 299 299 304 303 314 310 313 313 314 313 314 314 315 315 321 325 324 325 327 330 330 329 330 331 331 331 331 331 331 331 332 332
300 300 300 300 300 300 301 301 301 301 301 301 300 300 302 307 304 306 310 311 313 314 314 314 314 315 315 317 319 324 326 327 327 327 328 329 329 330 330 331 330 330 329 330 330
302 301 301 301 301 300 300 300 300 301 301 303 301 300 305 303 303 309 310 311 313 313 315 316 317 316 318 317 319 320 321 322 324 326 326 327 327 328 329 329 330 330 330 330 330
301 301 301 302 302 301 301 300 300 300 304 306 305 302 307 303 307 308 308 310 311 312 313 314 315 314 315 319 320 321 321 322 322 324 327 327 328 328 329 329 329 330 329 329 329
301 301 301 300 300 300 300 301 301 305 307 307 308 306 310 311 310 309 308 309 309 309 310 311 312 313 314 316 317 319 321 321 323 324 326 327 327 327 328 329 329 329 329 329 330
301 301 301 301 301 300 302 306 308 309 309 311 311 311 310 310 311 310 311 310 311 310 309 310 312 312 312 314 318 320 321 322 322 324 325 326 326 326 327 327 328 328 329 329 330
300 300 301 301 301 300 307 307 308 310 311 309 309 313 313 313 311 309 309 309 308 313 309 310 310 313 313 314 316 319 322 322 323 323 324 324 324 324 326 326 326 327 328 330 329
300 300 301 301 302 307 308 308 308 307 306 307 307 307 307 309 307 307 307 307 308 309 313 313 310 312 314 315 316 317 317 318 321 323 323 323 324 325 326 325 326 327 329 330 330
300 301 301 302 306 307 308 307 307 307 306 307 307 307 307 307 307 307 307 307 307 307 308 313 313 313 314 315 316 316 317 316 317 320 321 321 321 321 323 326 327 329 329 330 330
300 301 303 306 307 308 308 307 307 307 306 308 310 309 307 306 307 308 308 308 308 307 307 307 310 315 314 314 316 316 317 318 319 320 320 320 320 321 323 325 326 328 329 330 330
300 303 305 308 308 308 308 306 307 307 312 310 310 309 311 310 312 313 309 310 309 309 307 307 308 310 313 314 316 317 318 317 319 318 318 319 320 322 324 325 326 326 327 328 329
301 304 306 307 308 307 307 307 307 309 312 310 308 308 308 309 310 312 313 313 313 309 308 308 309 308 308 311 315 315 317 317 317 317 317 318 320 321 321 323 324 324 327 327 326
301 304 307 308 308 307 307 307 306 310 308 307 307 309 308 308 308 310 312 313 314 314 313 311 311 311 310 309 310 313 313 314 317 317 318 318 320 322 322 323 324 324 326 326 327
301 304 309 309 308 308 308 308 308 308 306 307 308 309 309 309 309 310 309 308 311 313 313 313 315 315 315 310 309 310 313 315 318 319 318 319 321 320 322 324 324 325 325 326 328
301 307 311 310 308 307 309 309 310 308 306 307 308 309 309 309 309 310 309 311 311 314 314 314 313 312 311 311 310 309 310 315 315 318 318 319 320 320 320 321 323 323 326 335 334
302 309 311 310 309 310 309 309 309 309 306 307 308 309 309 308 310 310 310 311 312 312 311 312 312 310 310 312 315 315 312 315 315 317 320 320 320 320 321 323 323 326 326 337 338
307 311 311 310 308 310 310 310 308 306 307 308 308 307 309 309 310 309 311 310 311 311 310 310 311 312 312 312 315 314 311 311 314 316 319 321 320 320 328 328 325 326 328 337 337
308 310 309 309 309 309 309 308 307 308 308 309 309 308 309 309 310 310 311 311 309 310 309 311 313 314 312 313 314 315 313 311 314 317 318 319 320 321 324 327 326 326 329 336 337
307 311 310 309 309 308 308 308 307 308 308 309 307 307 308 308 310 310 310 310 310 310 312 311 311 313 314 313 315 318 320 315 316 317 318 320 321 320 324 327 327 325 331 336 337
308 310 309 308 308 309 309 308 307 307 309 307 307 307 309 309 308 309 309 310 310 309 310 311 310 312 313 314 315 317 316 317 317 319 319 320 320 320 325 326 326 330 335 336 336
309 309 307 307 306 307 309 308 307 308 308 307 307 308 308 307 308 309 309 309 309 311 311 311 312 311 310 311 313 315 315 316 316 317 320 319 321 320 326 328 334 334 335 335 336
308 307 307 306 306 308 308 308 307 307 306 307 308 308 307 307 308 309 309 309 309 310 312 311 311 312 314 314 314 316 315 314 315 316 319 320 321 327 326 333 335 335 335 336 336
304 305 306 306 307 307 308 309 308 308 306 306 306 308 308 309 309 309 308 308 308 308 309 311 313 315 317 316 315 315 313 314 315 317 319 322 326 325 326 329 332 335 335 335 335
Wind_Speed
16 16 15 16 18 18 18 17 16 15 15 16 17 18 20 25 27 25 29 29 19 18 17 10 10 15 17 18 21 18 3 8 10 10 14 26 15 32 20 4 10 6 10 9 2
18 18 18 17 17 18 19 19 19 18 17 16 16 16 18 22 26 32 30 30 24 22 20 24 17 16 23 23 18 14 8 15 14 12 13 23 25 26 23 5 10 15 13 12 20
19 19 19 20 20 18 18 18 19 19 19 18 17 15 14 18 22 16 14 17 24 26 25 19 19 18 19 21 28 24 19 17 19 25 27 26 23 24 28 13 9 2 16 13 24
19 20 20 20 21 21 20 19 18 18 19 19 19 17 15 11 6 5 4 11 13 26 27 25 23 26 14 16 29 21 28 26 26 31 31 22 29 24 29 25 16 14 29 24 27
19 20 20 21 20 20 20 21 19 19 19 19 20 19 18 11 25 8 15 15 9 18 27 23 25 18 13 14 26 24 19 29 33 34 35 35 29 25 30 40 37 34 27 27 27
20 21 21 22 23 23 22 21 21 20 19 20 20 20 17 14 18 17 11 18 11 10 25 28 20 23 16 18 20 18 22 27 29 31 33 28 28 33 35 34 33 37 42 40 34
21 21 22 21 21 20 20 22 22 20 22 19 17 19 19 30 23 17 18 16 19 19 20 23 22 23 10 13 35 27 20 21 27 27 23 32 29 28 29 32 35 35 40 38 28
25 26 26 26 26 25 24 22 18 17 19 18 19 12 13 21 12 13 24 21 18 21 22 23 20 18 17 17 24 18 16 21 21 21 29 22 34 15 33 32 33 33 37 35 32
26 27 27 28 27 27 28 25 17 12 17 17 17 9 11 6 13 9 20 18 18 20 20 19 19 20 18 4 7 12 21 23 24 24 16 13 28 20 32 33 37 37 39 40 38
29 31 32 31 31 29 25 22 17 13 11 7 11 9 17 13 8 4 6 9 11 16 18 22 16 10 9 10 16 11 21 25 26 13 17 20 27 28 39 33 33 38 38 39 43
31 35 34 32 28 23 19 25 30 8 6 19 26 16 36 16 17 7 9 5 12 8 9 16 9 21 33 21 15 18 22 18 17 18 16 18 25 26 22 19 22 30 28 25 19
30 31 30 27 22 10 15 17 21 22 22 34 36 44 40 38 31 33 23 23 12 8 10 9 23 26 15 19 21 23 24 21 14 12 17 21 20 25 21 18 34 34 30 32 34
27 30 28 21 15 12 17 17 22 26 12 40 38 43 37 32 32 35 27 26 15 13 12 15 16 16 20 20 21 26 26 18 21 12 19 11 12 19 16 19 24 26 31 23 23
27 25 21 21 12 17 17 23 22 19 4 15 9 5 10 32 26 38 34 28 17 17 13 15 17 21 20 24 19 24 13 21 18 12 20 5 14 19 16 20 16 20 25 25 25
25 19 19 12 19 14 21 29 19 8 5 11 16 18 24 3 7 7 22 24 19 16 10 22 14 7 17 21 19 23 15 18 12 17 16 16 6 27 8 12 9 10 28 35 37
23 15 15 14 15 23 25 17 11 3 4 10 6 14 9 6 16 3 8 8 8 14 15 18 18 16 18 17 19 17 17 18 15 12 14 17 12 31 18 20 7 9 27 29 31
22 12 11 10 12 17 21 12 4 1 5 13 22 22 20 17 11 8 8 7 0 4 10 13 16 17 18 19 18 13 13 8 8 11 17 12 10 22 5 14 20 15 25 31 25
21 11 9 7 8 12 13 3 4 17 16 16 15 17 8 20 15 18 15 6 5 4 5 7 7 8 9 18 12 13 13 10 14 11 16 7 15 12 13 18 27 33 33 32 22
22 9 8 4 6 8 5 2 4 12 15 17 16 9 9 21 9 12 10 10 6 4 2 5 6 14 21 18 15 21 18 13 17 15 6 6 19 23 26 26 19 18 18 13 12
25 13 3 8 13 7 2 4 4 19 18 16 7 4 12 13 11 9 9 4 2 5 3 1 8 8 18 13 15 14 11 8 9 18 16 8 14 12 16 16 19 9 12 26 36
13 6 7 8 6 4 1 5 18 24 26 13 18 12 1 4 8 10 7 11 9 2 7 5 6 8 10 3 8 7 17 13 7 11 11 11 12 14 10 8 9 10 18 33 35
9 3 4 11 5 2 3 13 23 20 25 13 9 16 10 11 10 7 10 3 10 18 5 5 2 6 12 15 17 18 19 16 9 8 10 6 11 7 11 5 9 11 23 38 40
17 9 5 6 1 3 8 15 20 13 10 10 7 11 6 6 6 13 6 11 11 10 9 3 3 5 8 6 9 5 8 12 8 15 18 15 14 14 10 4 7 9 25 36 39
7 4 10 11 19 5 7 8 16 18 17 18 12 11 2 5 11 10 15 3 8 7 22 9 3 8 7 14 9 10 20 15 9 10 13 19 11 11 13 9 8 3 33 39 40
4 4 11 5 9 12 12 8 16 14 13 19 8 15 16 13 16 8 15 11 14 1 3 1 4 10 14 20 13 14 18 20 15 16 9 16 17 15 8 5 4 26 33 36 36
8 7 9 16 17 11 6 4 12 14 12 14 12 18 13 13 11 19 16 10 7 6 3 2 5 6 15 18 15 11 15 19 19 22 18 22 7 8 7 11 13 22 27 31 34
12 10 9 9 9 8 6 8 15 17 10 20 18 16 16 17 23 28 26 25 14 10 11 9 3 4 5 7 10 6 13 16 15 19 19 18 6 6 7 9 5 18 26 30 33
Wind_Direction
343 340 337 332 330 329 327 326 322 320 316 315 313 314 308 292 281 275 262 255 256 231 237 217 214 209 203 224 221 227 230 255 250 254 275 297 324 311 328 337 285 39 358 326 261
348 346 342 337 331 330 328 327 323 319 312 308 306 308 311 309 293 277 268 268 250 235 227 224 216 210 230 221 224 223 226 235 245 258 276 294 297 303 313 209 233 270 301 290 289
357 354 349 346 343 339 333 329 325 319 315 310 306 302 301 307 304 286 286 265 248 228 226 232 230 226 228 241 220 236 238 241 258 258 264 270 279 295 300 303 246 21 278 285 296
355 351 349 345 341 339 337 332 327 322 318 314 308 301 294 289 243 166 353 343 246 216 218 228 228 242 240 223 238 243 237 239 250 262 271 272 278 277 282 287 286 256 244 269 289
2 358 353 349 344 339 333 328 324 321 319 313 309 304 298 253 242 198 303 315 322 216 213 218 231 240 248 241 228 238 247 241 244 249 255 268 272 270 274 281 287 297 293 286 288
358 354 351 348 343 339 333 326 322 317 311 309 305 298 291 260 272 242 265 275 265 224 221 219 228 235 281 251 251 258 254 257 252 244 249 257 265 265 262 265 287 288 286 284 284
355 351 347 344 340 334 326 321 315 308 309 307 296 290 272 262 281 243 231 220 205 221 238 237 236 222 213 254 259 262 266 271 262 259 248 255 261 253 271 281 278 272 273 275 281
355 352 349 345 341 336 328 320 312 298 293 302 306 277 261 307 285 253 230 238 221 222 234 244 247 275 266 258 270 259 259 255 256 261 254 254 262 273 275 278 276 278 283 278 277
352 349 347 344 341 336 331 325 320 292 277 288 287 253 259 317 257 301 243 246 238 254 250 250 259 261 278 241 267 235 239 249 250 237 252 249 274 271 273 266 255 258 265 268 263
349 346 343 339 335 334 335 342 356 300 299 286 284 232 260 249 247 246 232 202 226 242 250 231 230 226 236 221 219 217 227 236 246 239 238 244 255 264 264 261 261 266 263 256 250
349 346 339 334 330 334 351 355 354 350 346 294 283 245 290 277 300 263 218 245 271 214 211 233 217 222 219 218 228 246 239 252 244 244 263 256 258 268 269 264 268 266 268 249 234
344 336 331 334 337 355 349 346 337 319 294 285 259 254 249 261 284 279 271 284 255 230 222 235 228 228 237 226 231 244 260 262 263 246 247 247 257 256 253 253 252 257 261 262 255
341 340 340 349 353 356 339 344 326 336 305 294 266 252 248 248 249 255 250 251 246 251 242 229 244 224 231 233 229 232 238 248 256 285 279 286 290 285 283 274 267 256 259 262 250
346 350 353 3 11 356 353 324 318 337 300 310 313 15 218 233 254 248 235 228 231 235 242 260 254 239 245 229 232 242 234 238 253 241 254 209 272 264 266 264 266 266 271 272 268
348 353 1 351 341 353 331 325 337 355 298 360 351 333 328 22 322 357 213 224 224 223 212 240 273 261 247 249 232 253 225 257 257 246 261 254 269 266 215 254 248 256 256 257 260
345 348 349 17 351 347 323 341 338 49 315 313 306 325 332 353 290 339 312 295 286 213 239 250 246 257 264 272 252 263 243 244 257 261 263 249 222 267 242 250 251 243 260 262 258
340 329 337 343 339 335 341 357 36 124 232 355 355 351 335 332 311 241 219 152 275 344 275 248 246 251 252 269 275 260 233 248 236 231 239 222 243 235 251 235 239 242 249 258 264
339 317 326 314 342 312 347 3 30 351 4 353 0 345 331 14 335 342 332 296 170 303 291 257 265 263 254 230 253 255 235 221 214 217 244 236 241 238 241 261 243 249 250 256 259
338 329 301 302 330 319 339 317 305 335 347 337 2 343 348 1 338 350 339 15 24 97 305 10 282 311 302 297 229 251 251 246 250 279 225 234 240 262 258 258 256 245 245 135 147
330 332 304 235 331 4 317 269 302 300 326 317 2 351 325 343 333 358 311 241 108 153 247 87 285 278 287 286 278 235 259 249 224 235 253 242 250 256 263 257 236 215 156 133 143
345 297 192 303 324 6 14 288 307 314 319 334 323 314 60 314 297 319 220 310 303 291 197 210 196 276 300 256 270 267 238 240 279 220 232 255 257 263 274 202 173 182 166 149 149
9 309 280 0 272 131 253 312 301 340 339 321 344 345 13 356 323 318 332 318 343 331 295 336 309 281 263 281 279 285 266 232 228 250 232 243 246 248 270 172 152 188 158 155 152
339 295 3 337 325 335 314 307 316 316 309 315 327 341 36 15 326 293 312 1 13 6 339 347 272 303 310 235 252 283 327 252 248 238 219 239 245 263 309 259 215 181 151 146 147
330 320 336 334 360 338 313 306 326 330 313 359 336 321 87 294 308 313 315 343 291 239 279 297 249 255 275 295 325 294 310 321 347 248 233 226 251 254 243 232 228 212 147 147 148
326 348 14 322 329 334 326 293 322 327 324 344 318 346 337 322 311 296 318 320 321 192 281 196 247 254 272 277 273 270 285 299 307 283 275 234 217 230 282 237 154 146 144 141 145
341 349 325 298 311 318 321 292 320 329 327 309 323 322 314 301 304 312 304 299 279 266 224 173 262 292 278 264 252 232 266 283 285 282 282 258 234 236 22 77 102 124 137 144 149
329 324 312 287 317 335 334 326 312 315 316 323 306 317 309 295 293 291 290 279 248 250 262 261 262 295 295 137 120 301 259 263 271 265 263 265 163 315 113 31 78 144 146 153 152